Location: �cuire
(50.6349°N, 2.0384°E)
Time: 23:47:46
(UTC+00:00)

Daily predictions for brighter satellites

Satellite Brightness Start Highest point End
(mag) Time Altitude Azimuth Time Altitude Azimuth Time Altitude Azimuth
USA 305 4.3 16:25:57 10° SSW 16:29:24 25° SE 16:32:52 10° E
SL-08 R/B 3.4 16:25:58 10° NNE 16:30:45 62° ESE 16:35:24 10° S
Cosmos 1606 4.2 16:29:36 10° SE 16:32:08 17° E 16:34:41 10° NE
Cosmos 2061 Rocket 4.4 16:27:07 10° SSW 16:33:33 74° WNW 16:39:58 10° N
USA 276 2.3 16:31:46 10° WSW 16:34:52 67° SSE 16:38:00 10° E
ARGOS 4.3 16:31:20 10° ESE 16:35:14 21° NE 16:39:08 10° N
Okean O Rocket 3.1 16:35:03 10° E 16:37:54 17° ENE 16:40:46 10° NNE
Cosmos 192 4.4 16:35:41 10° SSW 16:40:38 85° WNW 16:45:36 10° NNE
Meteor PRIRODA 3.6 16:39:04 10° SSE 16:42:43 84° ENE 16:46:24 10° NNW
CZ-4C R/B 3.7 16:41:57 10° N 16:46:04 68° WNW 16:49:57 10° SSW
NOSS 2-1 (E) 4.2 16:47:22 10° S 16:50:04 24° ESE 16:52:18 13° ENE
Cosmos 2221 3.5 16:46:38 10° SE 16:50:08 26° E 16:53:41 10° NNE
ISS -3.4 16:48:35 10° WSW 16:51:56 58° SSE 16:54:50 13° E
CZ-2C R/B 3.9 16:49:03 10° NE 16:52:44 19° E 16:56:21 10° SE
Cosmos 1992 Rocket 4.3 16:47:55 10° SSW 16:53:07 69° WNW 16:58:22 10° NNE
USA 267 3.4 16:47:49 10° ENE 16:54:22 78° NNW 17:00:54 10° WSW
Cosmos 1340 Rocket 3.9 16:51:28 10° NNE 16:54:44 23° ENE 16:57:59 10° ESE
Spot 1 4.2 16:50:24 10° NNE 16:54:52 84° ESE 16:59:35 10° SSW
USA 81 4.3 16:49:44 10° S 16:54:59 76° W 17:00:18 10° N
deb Chang Zheng 4 4.4 16:55:12 10° ESE 16:58:51 28° ENE 17:02:33 10° N
YAOGAN 1 4.2 16:58:27 13° ENE 16:59:06 14° NE 17:01:17 10° NNE
Nadezhda 4 Rocket 4.3 16:53:09 10° N 16:59:11 46° ENE 17:05:14 10° SE
AQUARIUS 4.1 16:55:04 10° SSE 16:59:29 62° ENE 17:03:57 10° N
USA 229 DEB 4.3 16:52:59 10° NW 16:59:44 44° NNE 17:06:57 10° E
USA 229 4.3 16:53:05 10° NW 16:59:50 43° NNE 17:07:02 10° E
RESURS DK-1 3.6 16:56:13 10° WSW 17:00:05 38° NW 17:03:59 10° NNE
Lacrosse 5 rocket 1.8 16:57:12 10° W 17:00:48 44° NNW 17:03:54 14° NE
USA 306 3.7 16:56:58 10° SSW 17:00:55 38° SE 17:04:01 15° E
Cosmos 1271 Rocket 2.9 16:57:36 10° S 17:01:24 54° E 17:05:17 10° NNE
NOSS 3-4 (C) 4.5 16:59:49 10° W 17:05:19 36° NNW 17:11:13 11° NE
SMAP 3.0 17:01:52 10° SSE 17:06:32 84° ENE 17:11:14 10° NNW
Cosmos 1408 Rocket 3.7 17:03:03 10° N 17:07:14 47° ENE 17:11:26 10° SSE
ATLAS 2AS CENTAUR R/B 3.4 17:00:25 10° WSW 17:08:10 60° NW 17:15:29 11° NE
Cosmos 1743 Rocket 4.3 17:05:16 10° N 17:09:04 29° ENE 17:12:50 10° SE
SL-16 R/B 4.2 17:07:42 10° N 17:09:23 11° NNE 17:11:05 10° NE
CZ-4B DEB 4.2 17:04:22 10° SSE 17:09:53 73° ENE 17:15:24 10° NNW
Cosmos 1697 Rocket 3.6 17:05:36 10° NNW 17:10:26 28° NE 17:14:22 14° E
Cosmos 1980 Rocket 3.6 17:06:24 10° NNW 17:10:31 20° NE 17:12:43 16° ENE
Meteor 2-2 Rocket 4.5 17:05:53 10° S 17:11:46 57° E 17:17:40 10° NNE
H-2A R/B 2.1 17:09:12 10° SE 17:14:19 54° ENE 17:19:19 10° N
Cosmos 2237 Rocket 4.4 17:12:14 10° NW 17:14:51 13° NNW 17:17:28 10° N
USA 307 3.5 17:11:54 10° SW 17:15:58 43° SE 17:18:33 20° E
Cosmos 1513 Rocket 4.4 17:10:30 10° S 17:16:31 68° E 17:22:39 10° NNE
Cosmos 44 3.5 17:12:03 10° NW 17:16:50 47° NE 17:20:57 12° ESE
PAYLOAD B 4.2 17:11:34 10° SSE 17:17:07 67° ENE 17:22:42 10° NNW
Cosmos 1777 Rocket 4.3 17:13:09 10° NNW 17:18:26 74° WSW 17:23:41 10° SSE
ATLAS CENTAUR R/B 1.4 17:16:46 10° SSW 17:20:51 70° SE 17:23:56 19° NE
Cosmos 2034 Rocket 4.1 17:16:09 10° SSE 17:22:01 49° E 17:27:55 10° NNE
Lacrosse 5 2.7 17:17:05 10° WNW 17:22:03 53° SW 17:27:00 10° SSE
NOSS 3-1 (A) 4.1 17:16:20 10° NW 17:23:16 55° NE 17:31:29 10° ESE
Cosmos 1939 Rocket 3.5 17:19:55 10° S 17:24:00 62° W 17:28:07 10° NNW
SKYMED 2 4.4 17:22:53 18° NE 17:25:17 30° E 17:29:06 10° SSE
Cosmos 1898 Rocket 4.1 17:22:31 10° NNW 17:27:22 35° NE 17:31:16 14° ESE
SL-16 R/B 4.3 17:23:38 10° W 17:27:40 19° NW 17:31:43 10° N
Okean 3 Rocket 4.2 17:23:47 10° NNW 17:28:16 62° W 17:32:42 10° S
NOSS 3-1 (C) 4.0 17:21:09 10° NW 17:28:21 75° NE 17:36:55 10° SE
Cosmos 1656 3.7 17:24:34 10° NNW 17:30:02 58° NE 17:35:30 10° SE
MOS 1-B Rocket 4.2 17:24:51 10° NNE 17:30:17 46° E 17:36:09 10° S
NOSS 2-1 (C) 2.7 17:27:33 10° SW 17:30:47 69° SE 17:32:11 31° NE
Cosmos 1072 Rocket 4.5 17:24:58 10° S 17:31:21 84° E 17:37:43 10° N
Cosmos 2084 4.2 17:28:40 10° NW 17:32:32 33° NNE 17:33:55 27° ENE
Cosmos 1862 4.4 17:29:39 10° NNW 17:33:29 47° W 17:37:18 10° SSW
Meteor 1-20 Rocket 4.4 17:29:13 10° N 17:34:52 53° ENE 17:40:34 10° SSE
CZ-2D R/B 3.2 17:31:41 10° SSE 17:35:32 88° E 17:39:24 10° NNW
GEOS 3 Rocket 3.6 17:30:28 10° SE 17:35:44 88° SW 17:40:59 10° NW
Cosmos 1461 3.0 17:33:05 10° SW 17:37:18 72° NW 17:39:49 23° NNE
PSLV R/B 3.8 17:33:47 10° S 17:37:27 73° WSW 17:41:10 10° NNW
MOS 1-B 4.3 17:31:54 10° SSE 17:37:41 87° ENE 17:43:31 10° NNW
USA 308 3.1 17:33:48 10° SW 17:37:59 57° SSE 17:39:45 31° E
NOSS 2-1 (D) 2.7 17:36:47 10° SW 17:40:02 85° SE 17:41:11 38° NE
SL-08 RB Rocket 4.2 17:36:17 10° SE 17:40:36 39° ENE 17:44:54 10° N
Cosmos 1500 Rocket 3.5 17:36:22 10° N 17:40:48 60° ENE 17:45:11 10° SSE
SJ 16-02 2.1 17:38:57 10° NNW 17:43:14 54° WSW 17:47:30 10° S
Cosmos 1634 Rocket 4.4 17:44:43 10° SSE 17:50:31 40° E 17:56:22 10° NNE
Cosmos 1805 Rocket 3.7 17:46:54 10° N 17:51:07 46° ENE 17:55:17 10° SSE
Cosmos 1842 Rocket 3.5 17:48:43 10° S 17:53:10 89° WNW 17:57:40 10° N
CZ-4C R/B 3.4 17:47:08 10° NW 17:53:12 37° NNE 17:56:08 28° ENE
CZ-4B R/B 3.1 17:49:25 10° SSE 17:54:55 90° WNW 18:00:21 10° NNW
H-2A R/B 4.2 17:58:19 17° N 17:58:19 17° N 17:59:26 10° N
ATLAS 5 CENTAUR R/B 2.9 17:47:45 10° WNW 17:57:42 44° NNE 17:58:53 36° NE
CZ-4 R/B 2.7 18:00:41 26° NNE 18:00:41 26° NNE 18:02:51 10° N
Cosmos 1833 Rocket 3.5 17:54:28 10° SSE 17:58:47 29° ESE 17:58:47 29° ESE
YAOGAN 3 4.4 17:56:40 10° SSE 18:01:02 82° ENE 18:05:24 10° NNW
Meteor 1-25 Rocket 4.1 18:01:11 10° N 18:06:46 82° ENE 18:12:21 10° SSE
Cosmos 1606 3.8 18:03:55 10° SSW 18:07:30 42° WNW 18:11:07 10° N
Cosmos 2026 Rocket 3.8 18:01:20 10° N 18:07:33 69° ENE 18:13:38 10° SSE
Cosmos 2195 Rocket 4.3 18:02:41 10° N 18:08:51 81° E 18:15:01 10° SSE
USA 305 2.7 18:04:38 10° WSW 18:08:53 88° SSE 18:09:32 63° ENE
Sich 1 3.3 18:05:59 10° N 18:09:18 45° NNE 18:09:18 45° NNE
USA 276 2.5 18:07:44 10° W 18:10:26 60° WSW 18:10:26 60° WSW
COSMO-SKYMED 1 2.4 18:11:30 31° NNE 18:13:34 85° ESE 18:17:54 10° SSW
Okean O Rocket 1.7 18:09:17 10° S 18:13:43 75° WSW 18:18:13 10° NNW
ARGOS 3.2 18:09:27 10° SSE 18:14:54 81° WSW 18:20:22 10° NNW
Spot 2 4.4 18:12:06 10° SSE 18:17:07 67° ENE 18:22:16 10° N
ATLAS CENTAUR R/B 3.0 18:10:13 10° SSW 18:18:41 45° SE 18:19:17 43° SE
Cosmos 1937 Rocket 3.5 18:14:54 10° NNW 18:20:12 62° ENE 18:21:05 53° ESE
ERBS 3.6 18:17:51 10° SW 18:19:49 33° SSW 18:19:49 33° SSW
Meteor 2-16 Rocket 4.4 18:17:31 10° N 18:23:32 54° ENE 18:25:14 41° ESE
Cosmos 2221 4.0 18:23:36 10° SW 18:27:32 36° WNW 18:31:32 10° N
Cosmos 2360 Rocket 4.2 18:25:25 10° N 18:27:21 14° NNE 18:27:21 14° NNE
ISS -2.6 18:25:23 10° W 18:27:49 43° WNW 18:27:49 43° WNW
Meteor 1-5 Rocket 4.4 18:23:02 10° N 18:28:37 52° ENE 18:28:37 52° ENE
Cosmos 1763 Rocket 3.3 18:23:57 10° S 18:28:44 63° ESE 18:28:44 63° ESE
Cosmos 1340 Rocket 4.2 18:27:31 10° NNW 18:31:18 39° W 18:35:05 10° SSW
CZ-2C R/B 2.7 18:28:53 13° N 18:33:38 73° WNW 18:38:47 10° SSW
Cosmos 1933 3.9 18:30:18 10° SSW 18:33:24 51° SSW 18:33:24 51° SSW
NOSS 2-2 (C) 4.2 18:29:49 10° NW 18:34:24 56° NE 18:34:24 56° NE
YAOGAN 1 3.0 18:35:37 51° NNW 18:35:37 51° NNW 18:38:54 10° NNW
Meteor 2-21 4.4 18:30:22 10° NNW 18:36:31 85° W 18:42:35 10° S
USA 267 3.6 18:35:05 40° NE 18:37:04 52° N 18:43:21 10° W
Cosmos 2369 3.6 18:32:17 10° NNW 18:38:01 66° ENE 18:38:07 66° ENE
Landsat 5 3.6 18:38:53 73° W 18:38:53 73° W 18:42:59 10° SSW
Feng Yun 1-1 Rocket 4.5 18:34:04 10° S 18:40:00 76° WSW 18:45:57 10° NNW
Lacrosse 5 rocket 2.8 18:37:02 10° WNW 18:39:29 27° NNW 18:39:29 27° NNW
USA 306 3.3 18:36:22 10° WSW 18:40:01 61° WNW 18:40:01 61° WNW
Cosmos 2322 Rocket 4.0 18:39:02 10° NNW 18:41:19 18° N 18:41:19 18° N
Cosmos 858 Rocket 4.4 18:42:42 10° NNW 18:48:00 88° NNW 18:48:00 88° NNW
Cosmos 2333 Rocket 4.4 18:45:53 10° N 18:47:22 13° N 18:47:22 13° N
USA 229 DEB 4.0 18:44:01 10° NW 18:51:17 76° SW 18:54:57 34° SSE
USA 229 4.0 18:44:07 10° NW 18:51:23 76° SW 18:54:58 35° SSE
H-2A R/B 4.2 18:49:41 10° SSW 18:54:01 26° W 18:58:19 10° NW
Cosmos 1697 Rocket 2.8 18:49:19 10° NNW 18:54:55 70° WSW 18:56:10 52° S
SL-16 R/B 3.9 18:50:41 10° NNW 18:53:08 21° N 18:53:08 21° N
Cosmos 1980 Rocket 2.5 18:49:53 10° NNW 18:54:31 56° N 18:54:31 56° N
USA 307 3.9 18:51:30 10° W 18:54:34 44° W 18:54:34 44° W
COSMOS 2406 4.1 18:53:54 10° SSW 18:57:17 36° S 18:57:17 36° S
ATLAS CENTAUR R/B 3.2 18:56:30 10° W 19:00:03 27° NNW 19:00:03 27° NNW
ATLAS 2AS CENTAUR R/B 4.0 18:53:49 10° WNW 19:00:38 32° NNW 19:02:54 27° NNE
Meteor 1-26 Rocket 4.3 18:55:04 10° SSW 19:00:58 80° WNW 19:02:35 51° N
Cosmos 2082 Rocket 4.5 18:57:57 10° S 18:58:13 11° S 18:58:13 11° S
Cosmos 2142 Rocket 4.4 18:58:46 10° S 19:04:23 76° S 19:04:23 76° S
Meteor 1-14 Rocket 4.3 19:03:54 10° NNW 19:09:24 74° WNW 19:09:24 74° WNW
Cosmos 2279 Rocket 4.5 19:23:16 10° SSW 19:28:11 54° SW 19:28:11 54° SW
CZ-4 R/B 4.2 19:36:41 14° NW 19:36:41 14° NW 19:37:31 10° NW
CZ-4C R/B 3.1 19:35:35 10° NW 19:41:20 65° NW 19:41:20 65° NW
Cosmos 1833 Rocket 4.0 19:37:20 10° SW 19:40:32 33° WSW 19:40:32 33° WSW
